Other Public Products
Issued by NWS Charleston, SC

Current Version | Previous Version | Graphics & Text | Print | Product List | Glossary On
Versions: 1 2 3 4 5 6 7 8 9 10 11 12 13 14 15 16 17 18 19 20 21 22 23 24 25 26 27 28 29 30 31 32 33 34 35 36 37 38 39 40 41 42 43 44 45 46 47 48 49 50
000 FPUS82 KCHS 221526 OPUCHS TEST...KCHS/KSAV Gateway Observations...TEST National Weather Service Charleston SC 1100 AM EDT FRI SEP 22 2017 NOTE: "fair" indicates few or no clouds below 12,000 feet with no significant weather and/or obstructions to visibility. SCZ050-WAZ558-NCZ071-TXZ119-213-PAZ071-DCZ001-FLZ074-172-MI076- NYZ176-178-MAZ016-IL014-TNZ027-NJZ106-GAZ044-MD014-221600- ...Gateway Observations for Charleston International... CITY SKY/WX TMP DP RH WIND PRES REMARKS Chas Airport MOSUNNY 81 73 76 NE6 30.06S Seattle MOCLDY 52 47 83 SE7 30.06R Charlotte MOSUNNY 83 67 58 N6 30.11S Dallas DFW PTSUNNY 82 73 74 SE15 29.97R Dallas Love PTSUNNY 80 72 76 S10 29.99R Philladelphia CLOUDY 73 58 59 NW9 30.05S Wash National CLOUDY 80 65 59 VRB3 30.08F Baltimore PTSUNNY 79 66 64 VRB6 30.06F Miami PTSUNNY 87 77 72 SE5 29.91S THUNDER HX 99 Detroit MOSUNNY 79 68 69 SE3 30.14S Newark PTSUNNY 77 48 35 N16G24 30.01F Laguardia MOSUNNY 73 51 46 N18G26 30.00F J F K MOSUNNY 76 50 40 N16G26 30.00S Boston Logan CLOUDY 59 55 87 N22G33 30.02S Ft. Lauderdale PTSUNNY 85 78 80 E16 29.91R HX 96 Chicago O`Hare MOSUNNY 85 67 54 SW8 30.07S Chicago Midway MOSUNNY 85 68 56 SW8 30.08S Houston Bush MOSUNNY 82 75 79 E6 29.99R Houston Hobby MOSUNNY 85 75 72 SE6 29.98R HX 93 Nashville SUNNY 81 71 71 CALM 30.10S Atlanta SUNNY 80 69 69 E5 30.10R $$ GAZ044-118-TXZ119-213-NCZ071-DCZ001-MDZ014-506-PAZ021-071-NJZ106- NYZ176-178-MAZ106-OHZ011-021-055-MIZ076-KYZ091-ILZ014-INZ047- MNZ060-ONZ431-221600- ...Gateway Observations for Savannah International... CITY SKY/WX TMP DP RH WIND PRES REMARKS Savannah Arpt MOSUNNY 84 72 67 N6 30.06R Atlanta SUNNY 80 69 69 E5 30.10R Charlotte MOSUNNY 83 67 58 N6 30.11S Dallas DFW PTSUNNY 82 73 74 SE15 29.97R Houston Bush MOSUNNY 82 75 79 E6 29.99R Wash National CLOUDY 80 65 59 VRB3 30.08F Wash Dulles PTSUNNY 76 64 66 N7 30.10S Baltimore PTSUNNY 79 66 64 VRB6 30.06F Philadelphia CLOUDY 73 58 59 NW9 30.05S Newark PTSUNNY 77 48 35 N16G24 30.01F Laguardia MOSUNNY 73 51 46 N18G26 30.00F J F K MOSUNNY 76 50 40 N16G26 30.00S Boston CLOUDY 59 55 87 N22G33 30.02S Pittsburg CLOUDY 69 62 78 CALM 30.16S Akron PTSUNNY 78 64 61 SE5 30.15S Cleveland SUNNY 83 64 52 CALM 30.15S Cincinnati PTSUNNY 81 70 69 CALM 30.14R Columbus SUNNY 79 69 69 CALM 30.13S Detroit MOSUNNY 79 68 69 SE3 30.14S Chicago O`Hare MOSUNNY 85 67 54 SW8 30.07S Minneapolis PTSUNNY 79 72 79 S8 29.85S Indianapolis SUNNY 82 69 64 CALM 30.12S Toronto Canada MOSUNNY 77 61 57 E5 30.16S $$

USA.gov is the U.S. government's official web portal to all federal, state and local government web resources and services.